QPF
0.00 0.00 0.01 0.02 0.04 0.03 0.01 0.00 0.00 0.00 0.00 0.00 0.00 0.00 0.00 0.00 0.00 0.00 0.00 0.00 0.00 0.00 0.00 0.00 0.00 0.00 0.00 0.00 0.00 0.00 0.00 0.00 0.00 0.00 0.00 0.00 0.00 0.00 0.00 0.00 0.00 0.00 0.00 0.00 0.00 0.00 0.00 0.00 0.00
0.00 0.00 0.01 0.01 0.01 0.01 0.00 0.00 0.00 0.00 0.00 0.00 0.00 0.00 0.00 0.00 0.00 0.00 0.00 0.00 0.00 0.00 0.00 0.00 0.00 0.00 0.00 0.00 0.00 0.00 0.00 0.00 0.00 0.00 0.00 0.00 0.00 0.00 0.00 0.00 0.00 0.00 0.00 0.00 0.00 0.00 0.00 0.00 0.00
0.00 0.00 0.01 0.01 0.00 0.01 0.01 0.01 0.00 0.00 0.00 0.00 0.00 0.00 0.00 0.00 0.00 0.00 0.00 0.00 0.00 0.00 0.00 0.00 0.00 0.00 0.00 0.00 0.00 0.00 0.00 0.00 0.00 0.00 0.00 0.00 0.00 0.00 0.00 0.00 0.00 0.00 0.00 0.00 0.00 0.00 0.00 0.00 0.00
0.00 0.00 0.00 0.00 0.00 0.00 0.00 0.00 0.00 0.00 0.00 0.00 0.00 0.00 0.00 0.00 0.00 0.00 0.00 0.00 0.00 0.00 0.00 0.00 0.00 0.00 0.00 0.00 0.00 0.00 0.00 0.00 0.00 0.00 0.00 0.00 0.00 0.00 0.00 0.00 0.00 0.00 0.00 0.00 0.00 0.00 0.00 0.00 0.00
0.00 0.00 0.00 0.00 0.00 0.00 0.00 0.00 0.00 0.00 0.00 0.00 0.00 0.00 0.00 0.00 0.00 0.00 0.00 0.00 0.00 0.00 0.00 0.00 0.00 0.00 0.00 0.00 0.00 0.00 0.00 0.00 0.00 0.00 0.00 0.00 0.00 0.00 0.00 0.00 0.00 0.00 0.00 0.00 0.00 0.00 0.00 0.00 0.00
0.00 0.00 0.00 0.00 0.00 0.00 0.00 0.00 0.00 0.00 0.00 0.00 0.00 0.00 0.00 0.00 0.00 0.00 0.00 0.00 0.00 0.00 0.00 0.00 0.00 0.00 0.00 0.00 0.00 0.00 0.00 0.00 0.00 0.00 0.00 0.00 0.00 0.00 0.00 0.00 0.00 0.00 0.00 0.00 0.00 0.00 0.00 0.00 0.00
0.00 0.00 0.00 0.00 0.00 0.00 0.00 0.00 0.00 0.00 0.00 0.00 0.00 0.00 0.00 0.00 0.00 0.00 0.00 0.00 0.00 0.00 0.00 0.00 0.00 0.00 0.00 0.00 0.00 0.00 0.00 0.00 0.00 0.00 0.00 0.00 0.00 0.00 0.00 0.00 0.00 0.00 0.00 0.00 0.00 0.00 0.00 0.00 0.00
0.00 0.00 0.00 0.00 0.00 0.00 0.00 0.00 0.00 0.00 0.00 0.00 0.00 0.00 0.00 0.00 0.00 0.00 0.00 0.00 0.00 0.00 0.00 0.00 0.00 0.00 0.00 0.00 0.00 0.00 0.00 0.00 0.00 0.00 0.00 0.00 0.00 0.00 0.00 0.00 0.01 0.01 0.01 0.02 0.02 0.01 0.01 0.01 0.01
0.00 0.00 0.00 0.00 0.00 0.00 0.00 0.00 0.00 0.00 0.00 0.00 0.00 0.00 0.00 0.00 0.00 0.00 0.00 0.00 0.00 0.00 0.00 0.00 0.00 0.00 0.00 0.00 0.00 0.00 0.00 0.00 0.00 0.00 0.00 0.01 0.00 0.00 0.01 0.02 0.03 0.05 0.08 0.09 0.08 0.07 0.07 0.06 0.04
0.00 0.00 0.00 0.00 0.00 0.00 0.00 0.00 0.00 0.00 0.00 0.00 0.00 0.00 0.00 0.00 0.00 0.00 0.00 0.00 0.00 0.00 0.00 0.00 0.00 0.00 0.00 0.00 0.00 0.00 0.00 0.00 0.01 0.01 0.01 0.01 0.01 0.02 0.02 0.03 0.08 0.13 0.17 0.18 0.17 0.17 0.14 0.11 0.07
0.00 0.00 0.00 0.00 0.00 0.00 0.00 0.00 0.00 0.00 0.00 0.00 0.00 0.00 0.00 0.00 0.00 0.00 0.00 0.00 0.00 0.00 0.00 0.00 0.01 0.01 0.01 0.00 0.00 0.00 0.00 0.01 0.01 0.01 0.02 0.02 0.03 0.03 0.03 0.03 0.07 0.12 0.16 0.12 0.12 0.14 0.10 0.08 0.07
0.00 0.00 0.00 0.00 0.00 0.00 0.00 0.00 0.00 0.00 0.00 0.00 0.00 0.00 0.00 0.00 0.00 0.00 0.00 0.01 0.01 0.01 0.01 0.01 0.00 0.01 0.00 0.00 0.00 0.01 0.01 0.01 0.02 0.03 0.04 0.04 0.06 0.07 0.07 0.08 0.10 0.10 0.11 0.10 0.10 0.09 0.10 0.10 0.10
0.00 0.00 0.00 0.00 0.00 0.00 0.00 0.00 0.00 0.00 0.00 0.00 0.00 0.00 0.00 0.00 0.00 0.01 0.01 0.01 0.02 0.03 0.04 0.04 0.02 0.01 0.02 0.02 0.02 0.04 0.06 0.06 0.06 0.07 0.07 0.07 0.09 0.10 0.11 0.09 0.07 0.07 0.08 0.08 0.09 0.11 0.11 0.10 0.09
0.00 0.00 0.00 0.00 0.00 0.00 0.00 0.00 0.00 0.00 0.00 0.00 0.00 0.00 0.00 0.00 0.00 0.00 0.01 0.02 0.03 0.06 0.09 0.10 0.09 0.09 0.09 0.10 0.11 0.15 0.17 0.16 0.14 0.13 0.13 0.12 0.11 0.11 0.11 0.08 0.07 0.06 0.05 0.06 0.07 0.07 0.06 0.06 0.05
0.00 0.00 0.00 0.00 0.00 0.00 0.00 0.00 0.00 0.00 0.00 0.00 0.01 0.00 0.00 0.01 0.01 0.02 0.03 0.04 0.06 0.12 0.17 0.19 0.19 0.20 0.23 0.25 0.29 0.32 0.29 0.26 0.28 0.29 0.28 0.22 0.16 0.14 0.12 0.08 0.07 0.05 0.05 0.06 0.05 0.05 0.04 0.04 0.04
0.00 0.00 0.00 0.00 0.00 0.00 0.00 0.00 0.00 0.00 0.00 0.01 0.01 0.00 0.01 0.01 0.02 0.03 0.05 0.08 0.13 0.18 0.23 0.27 0.29 0.32 0.38 0.42 0.48 0.54 0.51 0.49 0.49 0.48 0.48 0.35 0.23 0.17 0.13 0.09 0.07 0.06 0.05 0.05 0.04 0.04 0.03 0.02 0.01
0.00 0.00 0.00 0.00 0.00 0.00 0.00 0.00 0.00 0.00 0.00 0.01 0.01 0.01 0.02 0.03 0.04 0.05 0.07 0.11 0.17 0.27 0.38 0.44 0.46 0.50 0.56 0.65 0.71 0.72 0.69 0.65 0.61 0.52 0.49 0.35 0.25 0.17 0.13 0.12 0.10 0.09 0.07 0.05 0.04 0.03 0.01 0.01 0.01
0.00 0.00 0.00 0.00 0.00 0.00 0.00 0.00 0.00 0.00 0.00 0.01 0.01 0.02 0.03 0.05 0.07 0.08 0.09 0.11 0.18 0.32 0.45 0.54 0.61 0.73 0.78 0.85 0.89 0.83 0.69 0.58 0.54 0.52 0.42 0.32 0.28 0.21 0.16 0.15 0.13 0.09 0.06 0.05 0.04 0.03 0.02 0.01 0.01
0.00 0.00 0.00 0.00 0.00 0.00 0.00 0.00 0.00 0.01 0.01 0.02 0.02 0.03 0.05 0.06 0.08 0.10 0.14 0.16 0.21 0.29 0.37 0.52 0.69 0.80 0.81 0.81 0.85 0.82 0.69 0.61 0.55 0.47 0.38 0.28 0.23 0.19 0.15 0.10 0.08 0.07 0.05 0.05 0.03 0.02 0.01 0.01 0.01
0.00 0.00 0.00 0.00 0.00 0.00 0.00 0.00 0.01 0.01 0.02 0.02 0.03 0.04 0.05 0.06 0.07 0.10 0.12 0.13 0.18 0.26 0.35 0.50 0.66 0.66 0.62 0.62 0.66 0.62 0.52 0.43 0.37 0.32 0.23 0.15 0.11 0.10 0.10 0.09 0.05 0.04 0.02 0.01 0.01 0.01 0.00 0.00 0.00
0.00 0.00 0.00 0.00 0.00 0.00 0.00 0.00 0.01 0.01 0.02 0.02 0.02 0.03 0.05 0.07 0.08 0.08 0.10 0.12 0.14 0.18 0.26 0.35 0.39 0.39 0.41 0.44 0.43 0.39 0.34 0.28 0.23 0.18 0.15 0.12 0.10 0.08 0.07 0.07 0.05 0.02 0.01 0.01 0.00 0.00 0.00 0.00 0.00
0.00 0.00 0.00 0.00 0.00 0.00 0.00 0.00 0.01 0.02 0.02 0.02 0.02 0.04 0.05 0.06 0.07 0.10 0.12 0.14 0.13 0.12 0.12 0.14 0.17 0.19 0.18 0.18 0.20 0.21 0.18 0.15 0.15 0.15 0.14 0.14 0.13 0.11 0.08 0.07 0.05 0.03 0.01 0.01 0.00 0.00 0.00 0.00 0.00
0.00 0.00 0.00 0.00 0.00 0.00 0.00 0.00 0.01 0.02 0.03 0.02 0.03 0.04 0.04 0.04 0.06 0.06 0.07 0.07 0.07 0.06 0.06 0.06 0.07 0.08 0.09 0.10 0.11 0.13 0.14 0.13 0.15 0.16 0.18 0.20 0.18 0.13 0.09 0.08 0.07 0.05 0.04 0.02 0.01 0.00 0.00 0.00 0.00
0.00 0.00 0.00 0.00 0.00 0.00 0.00 0.00 0.01 0.02 0.02 0.03 0.03 0.03 0.04 0.04 0.05 0.05 0.05 0.04 0.04 0.04 0.04 0.04 0.04 0.05 0.06 0.08 0.10 0.11 0.12 0.13 0.14 0.15 0.15 0.14 0.14 0.11 0.09 0.08 0.07 0.06 0.05 0.04 0.02 0.01 0.01 0.00 0.00
0.00 0.00 0.00 0.00 0.00 0.00 0.00 0.01 0.01 0.02 0.02 0.02 0.02 0.03 0.03 0.03 0.03 0.03 0.04 0.03 0.03 0.03 0.03 0.03 0.03 0.03 0.04 0.05 0.07 0.08 0.09 0.10 0.10 0.11 0.13 0.12 0.12 0.11 0.10 0.09 0.08 0.08 0.06 0.05 0.04 0.03 0.01 0.01 0.00
0.01 0.01 0.01 0.01 0.01 0.01 0.01 0.01 0.01 0.01 0.01 0.01 0.02 0.02 0.01 0.01 0.01 0.01 0.01 0.01 0.01 0.01 0.01 0.01 0.01 0.02 0.02 0.02 0.03 0.03 0.04 0.05 0.06 0.07 0.08 0.08 0.09 0.09 0.09 0.08 0.08 0.08 0.08 0.06 0.05 0.03 0.02 0.02 0.01
0.01 0.01 0.02 0.02 0.01 0.01 0.01 0.01 0.01 0.01 0.01 0.01 0.01 0.01 0.01 0.01 0.00 0.00 0.00 0.00 0.00 0.00 0.00 0.00 0.00 0.00 0.00 0.00 0.01 0.01 0.01 0.01 0.02 0.02 0.03 0.04 0.05 0.05 0.06 0.07 0.08 0.08 0.08 0.07 0.06 0.05 0.04 0.02 0.01
0.01 0.01 0.01 0.02 0.01 0.01 0.01 0.02 0.02 0.02 0.02 0.01 0.01 0.01 0.00 0.00 0.00 0.00 0.00 0.00 0.00 0.00 0.00 0.00 0.00 0.00 0.00 0.00 0.00 0.00 0.00 0.00 0.00 0.00 0.01 0.01 0.02 0.03 0.04 0.05 0.06 0.07 0.08 0.07 0.07 0.06 0.05 0.04 0.02
0.00 0.01 0.01 0.01 0.02 0.02 0.02 0.02 0.03 0.03 0.02 0.01 0.01 0.00 0.00 0.00 0.00 0.00 0.00 0.00 0.00 0.00 0.00 0.00 0.00 0.00 0.00 0.00 0.00 0.00 0.00 0.00 0.00 0.00 0.00 0.00 0.00 0.01 0.01 0.02 0.03 0.04 0.05 0.06 0.07 0.07 0.07 0.06 0.05
0.01 0.01 0.01 0.02 0.02 0.03 0.01 0.01 0.02 0.01 0.01 0.00 0.00 0.00 0.00 0.00 0.00 0.00 0.00 0.00 0.00 0.00 0.00 0.00 0.00 0.00 0.00 0.00 0.00 0.00 0.00 0.00 0.00 0.00 0.00 0.00 0.00 0.00 0.00 0.00 0.01 0.01 0.02 0.03 0.03 0.05 0.06 0.07 0.07
MSLP
1010.82 1011.88 1012.90 1013.68 1014.11 1014.12 1013.70 1012.96 1012.04 1011.10 1010.31 1009.76 1009.48 1009.42 1009.48 1009.54 1009.51 1009.32 1008.98 1008.57 1008.19 1007.95 1007.94 1008.19 1008.68 1009.33 1010.04 1010.70 1011.24 1011.62 1011.86 1012.00 1012.11 1012.24 1012.43 1012.69 1012.97 1013.26 1013.50 1013.67 1013.77 1013.82 1013.86 1013.91 1014.01 1014.15 1014.34 1014.54 1014.74
1011.17 1012.27 1013.24 1013.91 1014.15 1013.93 1013.26 1012.27 1011.13 1010.02 1009.11 1008.49 1008.18 1008.14 1008.25 1008.39 1008.46 1008.40 1008.21 1007.96 1007.74 1007.65 1007.77 1008.12 1008.69 1009.38 1010.11 1010.79 1011.33 1011.73 1011.99 1012.16 1012.30 1012.45 1012.65 1012.90 1013.15 1013.39 1013.58 1013.71 1013.78 1013.82 1013.87 1013.94 1014.07 1014.25 1014.46 1014.68 1014.88
1011.55 1012.65 1013.55 1014.08 1014.14 1013.70 1012.83 1011.65 1010.36 1009.15 1008.17 1007.53 1007.22 1007.20 1007.36 1007.56 1007.72 1007.76 1007.69 1007.58 1007.51 1007.55 1007.79 1008.23 1008.84 1009.56 1010.28 1010.93 1011.46 1011.84 1012.10 1012.28 1012.43 1012.59 1012.79 1013.01 1013.24 1013.43 1013.58 1013.68 1013.73 1013.78 1013.85 1013.96 1014.14 1014.35 1014.60 1014.83 1015.02
1011.94 1013.00 1013.80 1014.19 1014.08 1013.47 1012.45 1011.17 1009.81 1008.57 1007.59 1006.96 1006.69 1006.70 1006.89 1007.14 1007.35 1007.46 1007.49 1007.49 1007.53 1007.68 1008.00 1008.50 1009.14 1009.84 1010.53 1011.14 1011.62 1011.97 1012.20 1012.37 1012.51 1012.67 1012.86 1013.07 1013.27 1013.43 1013.55 1013.63 1013.68 1013.74 1013.83 1013.99 1014.21 1014.47 1014.74 1014.99 1015.18
1012.29 1013.28 1013.96 1014.20 1013.95 1013.23 1012.13 1010.81 1009.46 1008.26 1007.35 1006.78 1006.55 1006.60 1006.81 1007.08 1007.32 1007.48 1007.57 1007.64 1007.76 1007.99 1008.37 1008.89 1009.53 1010.20 1010.83 1011.38 1011.79 1012.09 1012.29 1012.44 1012.58 1012.74 1012.93 1013.12 1013.30 1013.45 1013.55 1013.61 1013.66 1013.73 1013.85 1014.05 1014.30 1014.59 1014.88 1015.13 1015.33
1012.57 1013.45 1013.99 1014.09 1013.72 1012.92 1011.80 1010.52 1009.24 1008.14 1007.33 1006.85 1006.69 1006.77 1007.00 1007.28 1007.52 1007.71 1007.84 1007.96 1008.14 1008.41 1008.82 1009.35 1009.95 1010.57 1011.13 1011.60 1011.95 1012.20 1012.37 1012.51 1012.65 1012.82 1013.02 1013.22 1013.39 1013.53 1013.62 1013.66 1013.70 1013.77 1013.90 1014.10 1014.36 1014.67 1014.97 1015.22 1015.41
1012.71 1013.45 1013.82 1013.78 1013.32 1012.48 1011.38 1010.17 1009.01 1008.05 1007.36 1006.99 1006.90 1007.02 1007.27 1007.55 1007.80 1008.00 1008.16 1008.33 1008.54 1008.85 1009.27 1009.77 1010.33 1010.88 1011.37 1011.77 1012.06 1012.26 1012.42 1012.56 1012.73 1012.93 1013.15 1013.37 1013.55 1013.68 1013.75 1013.77 1013.79 1013.83 1013.93 1014.11 1014.36 1014.65 1014.94 1015.20 1015.38
1012.68 1013.25 1013.46 1013.28 1012.73 1011.87 1010.82 1009.71 1008.69 1007.87 1007.31 1007.04 1007.03 1007.20 1007.47 1007.76 1008.03 1008.26 1008.45 1008.66 1008.91 1009.24 1009.65 1010.13 1010.63 1011.11 1011.52 1011.84 1012.08 1012.26 1012.42 1012.58 1012.79 1013.03 1013.29 1013.54 1013.74 1013.86 1013.91 1013.90 1013.87 1013.86 1013.91 1014.03 1014.24 1014.49 1014.76 1015.01 1015.19
1012.48 1012.86 1012.90 1012.60 1011.98 1011.12 1010.13 1009.13 1008.24 1007.56 1007.13 1006.95 1007.01 1007.22 1007.52 1007.85 1008.15 1008.42 1008.67 1008.92 1009.22 1009.56 1009.96 1010.40 1010.83 1011.23 1011.56 1011.81 1012.00 1012.16 1012.32 1012.52 1012.77 1013.07 1013.38 1013.66 1013.88 1014.01 1014.04 1013.99 1013.90 1013.82 1013.79 1013.84 1013.98 1014.18 1014.42 1014.65 1014.84
1012.13 1012.34 1012.23 1011.82 1011.15 1010.31 1009.39 1008.50 1007.74 1007.18 1006.85 1006.76 1006.87 1007.12 1007.46 1007.83 1008.19 1008.52 1008.83 1009.15 1009.48 1009.83 1010.21 1010.59 1010.95 1011.26 1011.50 1011.68 1011.82 1011.95 1012.12 1012.34 1012.63 1012.98 1013.33 1013.66 1013.90 1014.04 1014.06 1013.97 1013.83 1013.68 1013.57 1013.54 1013.60 1013.75 1013.95 1014.16 1014.35
1011.71 1011.77 1011.54 1011.07 1010.39 1009.60 1008.76 1007.99 1007.34 1006.88 1006.63 1006.60 1006.75 1007.03 1007.40 1007.82 1008.23 1008.63 1009.01 1009.38 1009.75 1010.10 1010.45 1010.76 1011.02 1011.23 1011.36 1011.46 1011.53 1011.62 1011.77 1012.00 1012.32 1012.69 1013.09 1013.45 1013.73 1013.89 1013.91 1013.81 1013.63 1013.43 1013.26 1013.17 1013.16 1013.25 1013.41 1013.60 1013.80
1011.33 1011.28 1010.99 1010.49 1009.85 1009.14 1008.42 1007.76 1007.21 1006.84 1006.65 1006.65 1006.81 1007.11 1007.49 1007.94 1008.40 1008.85 1009.29 1009.70 1010.07 1010.41 1010.70 1010.93 1011.09 1011.18 1011.20 1011.19 1011.18 1011.21 1011.31 1011.52 1011.82 1012.21 1012.62 1013.01 1013.32 1013.52 1013.58 1013.50 1013.34 1013.13 1012.93 1012.79 1012.74 1012.78 1012.91 1013.09 1013.28
1011.10 1010.98 1010.67 1010.21 1009.66 1009.07 1008.49 1007.96 1007.52 1007.22 1007.06 1007.06 1007.21 1007.48 1007.85 1008.29 1008.76 1009.24 1009.70 1010.12 1010.48 1010.78 1011.00 1011.14 1011.19 1011.16 1011.06 1010.94 1010.82 1010.76 1010.78 1010.92 1011.18 1011.53 1011.94 1012.35 1012.70 1012.95 1013.08 1013.07 1012.97 1012.80 1012.62 1012.48 1012.41 1012.43 1012.53 1012.69 1012.87
1011.07 1010.93 1010.67 1010.31 1009.89 1009.46 1009.04 1008.66 1008.33 1008.09 1007.94 1007.92 1008.01 1008.22 1008.53 1008.92 1009.36 1009.81 1010.25 1010.64 1010.96 1011.20 1011.34 1011.38 1011.32 1011.18 1010.97 1010.73 1010.51 1010.34 1010.26 1010.30 1010.47 1010.76 1011.13 1011.54 1011.93 1012.25 1012.47 1012.57 1012.57 1012.50 1012.39 1012.29 1012.23 1012.24 1012.33 1012.46 1012.63
1011.24 1011.13 1010.95 1010.73 1010.50 1010.26 1010.03 1009.80 1009.58 1009.38 1009.23 1009.14 1009.15 1009.26 1009.47 1009.77 1010.13 1010.51 1010.88 1011.20 1011.45 1011.61 1011.67 1011.63 1011.48 1011.25 1010.96 1010.63 1010.31 1010.03 1009.83 1009.75 1009.81 1010.00 1010.31 1010.69 1011.10 1011.49 1011.81 1012.05 1012.19 1012.25 1012.25 1012.22 1012.21 1012.23 1012.31 1012.42 1012.56
1011.54 1011.49 1011.42 1011.38 1011.35 1011.32 1011.29 1011.21 1011.09 1010.92 1010.74 1010.59 1010.49 1010.47 1010.55 1010.71 1010.95 1011.22 1011.49 1011.72 1011.89 1011.97 1011.96 1011.85 1011.65 1011.37 1011.03 1010.65 1010.25 1009.88 1009.57 1009.37 1009.29 1009.36 1009.58 1009.90 1010.31 1010.76 1011.18 1011.55 1011.84 1012.05 1012.17 1012.24 1012.29 1012.34 1012.42 1012.51 1012.62
1011.87 1011.89 1011.96 1012.10 1012.28 1012.47 1012.62 1012.68 1012.64 1012.50 1012.28 1012.04 1011.82 1011.66 1011.59 1011.61 1011.71 1011.86 1012.01 1012.14 1012.22 1012.23 1012.16 1012.02 1011.81 1011.52 1011.18 1010.78 1010.36 1009.93 1009.53 1009.21 1009.00 1008.94 1009.03 1009.28 1009.66 1010.12 1010.62 1011.10 1011.53 1011.86 1012.11 1012.29 1012.40 1012.49 1012.58 1012.67 1012.76
1012.09 1012.20 1012.42 1012.74 1013.12 1013.51 1013.83 1014.01 1014.04 1013.90 1013.63 1013.30 1012.96 1012.67 1012.47 1012.35 1012.32 1012.35 1012.39 1012.42 1012.42 1012.38 1012.28 1012.13 1011.94 1011.69 1011.39 1011.03 1010.61 1010.17 1009.71 1009.30 1008.97 1008.77 1008.74 1008.88 1009.19 1009.63 1010.15 1010.70 1011.22 1011.66 1012.01 1012.27 1012.46 1012.59 1012.70 1012.79 1012.88
1012.13 1012.34 1012.70 1013.20 1013.77 1014.33 1014.78 1015.06 1015.12 1014.97 1014.66 1014.25 1013.81 1013.42 1013.10 1012.88 1012.75 1012.68 1012.64 1012.59 1012.53 1012.44 1012.32 1012.19 1012.03 1011.85 1011.62 1011.33 1010.97 1010.55 1010.08 1009.60 1009.17 1008.85 1008.69 1008.71 1008.92 1009.29 1009.79 1010.34 1010.90 1011.40 1011.82 1012.14 1012.38 1012.56 1012.70 1012.82 1012.93
1011.95 1012.27 1012.79 1013.45 1014.19 1014.88 1015.44 1015.77 1015.85 1015.68 1015.31 1014.84 1014.33 1013.87 1013.49 1013.22 1013.03 1012.90 1012.80 1012.70 1012.59 1012.47 1012.34 1012.22 1012.11 1011.99 1011.84 1011.64 1011.36 1010.99 1010.54 1010.05 1009.56 1009.14 1008.85 1008.75 1008.83 1009.10 1009.52 1010.03 1010.57 1011.08 1011.52 1011.88 1012.15 1012.37 1012.55 1012.72 1012.88
1011.61 1012.06 1012.73 1013.56 1014.43 1015.23 1015.84 1016.20 1016.27 1016.06 1015.65 1015.13 1014.59 1014.10 1013.71 1013.42 1013.23 1013.08 1012.96 1012.82 1012.68 1012.52 1012.37 1012.25 1012.16 1012.09 1012.02 1011.91 1011.72 1011.42 1011.03 1010.55 1010.04 1009.56 1009.18 1008.95 1008.91 1009.05 1009.36 1009.77 1010.24 1010.71 1011.13 1011.49 1011.79 1012.04 1012.26 1012.48 1012.71
1011.24 1011.83 1012.66 1013.62 1014.60 1015.47 1016.11 1016.46 1016.49 1016.24 1015.79 1015.24 1014.69 1014.22 1013.85 1013.60 1013.43 1013.30 1013.17 1013.02 1012.84 1012.63 1012.44 1012.29 1012.19 1012.14 1012.12 1012.08 1011.97 1011.76 1011.44 1011.01 1010.52 1010.01 1009.58 1009.26 1009.10 1009.12 1009.29 1009.59 1009.96 1010.34 1010.71 1011.04 1011.33 1011.60 1011.87 1012.15 1012.44
1010.97 1011.71 1012.68 1013.76 1014.82 1015.73 1016.37 1016.68 1016.65 1016.35 1015.85 1015.29 1014.75 1014.31 1013.99 1013.80 1013.68 1013.59 1013.47 1013.30 1013.07 1012.81 1012.56 1012.34 1012.20 1012.14 1012.12 1012.12 1012.08 1011.96 1011.72 1011.37 1010.92 1010.44 1009.99 1009.62 1009.38 1009.28 1009.33 1009.51 1009.76 1010.04 1010.33 1010.61 1010.88 1011.15 1011.44 1011.76 1012.10
1010.94 1011.82 1012.90 1014.07 1015.18 1016.08 1016.68 1016.93 1016.84 1016.47 1015.94 1015.36 1014.83 1014.43 1014.18 1014.04 1013.98 1013.92 1013.81 1013.62 1013.35 1013.02 1012.68 1012.39 1012.18 1012.06 1012.03 1012.04 1012.05 1012.00 1011.85 1011.58 1011.22 1010.79 1010.36 1009.98 1009.69 1009.51 1009.46 1009.52 1009.66 1009.85 1010.05 1010.27 1010.49 1010.74 1011.03 1011.36 1011.74
1011.20 1012.18 1013.35 1014.57 1015.68 1016.54 1017.08 1017.25 1017.07 1016.63 1016.06 1015.47 1014.96 1014.59 1014.38 1014.30 1014.27 1014.24 1014.14 1013.93 1013.60 1013.20 1012.78 1012.40 1012.10 1011.92 1011.85 1011.86 1011.89 1011.89 1011.82 1011.64 1011.37 1011.02 1010.64 1010.29 1009.98 1009.77 1009.66 1009.64 1009.68 1009.77 1009.90 1010.04 1010.21 1010.42 1010.68 1011.00 1011.37
1011.74 1012.79 1013.99 1015.20 1016.27 1017.06 1017.51 1017.58 1017.32 1016.81 1016.20 1015.59 1015.08 1014.74 1014.56 1014.50 1014.50 1014.48 1014.36 1014.12 1013.76 1013.30 1012.81 1012.34 1011.97 1011.73 1011.61 1011.59 1011.63 1011.66 1011.65 1011.55 1011.37 1011.11 1010.80 1010.50 1010.22 1010.01 1009.87 1009.80 1009.78 1009.81 1009.86 1009.94 1010.05 1010.20 1010.41 1010.68 1011.01
1012.48 1013.55 1014.72 1015.87 1016.85 1017.54 1017.88 1017.85 1017.51 1016.95 1016.30 1015.67 1015.17 1014.83 1014.65 1014.60 1014.60 1014.56 1014.43 1014.17 1013.77 1013.27 1012.73 1012.22 1011.80 1011.50 1011.34 1011.29 1011.31 1011.35 1011.37 1011.33 1011.21 1011.03 1010.80 1010.56 1010.34 1010.16 1010.02 1009.94 1009.90 1009.88 1009.89 1009.91 1009.96 1010.05 1010.20 1010.40 1010.66
1013.32 1014.34 1015.44 1016.47 1017.32 1017.88 1018.10 1017.98 1017.57 1016.97 1016.31 1015.68 1015.17 1014.83 1014.64 1014.57 1014.54 1014.48 1014.32 1014.04 1013.62 1013.12 1012.57 1012.04 1011.59 1011.26 1011.06 1010.97 1010.96 1010.98 1011.00 1010.97 1010.89 1010.77 1010.60 1010.43 1010.27 1010.14 1010.05 1009.99 1009.95 1009.92 1009.91 1009.90 1009.90 1009.94 1010.01 1010.14 1010.32
1014.14 1015.06 1016.02 1016.91 1017.60 1018.01 1018.12 1017.92 1017.48 1016.87 1016.21 1015.60 1015.10 1014.75 1014.54 1014.43 1014.36 1014.26 1014.07 1013.77 1013.36 1012.86 1012.33 1011.82 1011.37 1011.03 1010.79 1010.66 1010.59 1010.56 1010.54 1010.49 1010.41 1010.31 1010.19 1010.08 1009.98 1009.91 1009.88 1009.87 1009.86 1009.86 1009.84 1009.82 1009.80 1009.79 1009.81 1009.87 1009.97
1014.85 1015.64 1016.43 1017.14 1017.66 1017.93 1017.94 1017.69 1017.24 1016.66 1016.04 1015.47 1015.00 1014.65 1014.41 1014.26 1014.13 1013.97 1013.75 1013.43 1013.03 1012.56 1012.06 1011.58 1011.15 1010.80 1010.54 1010.34 1010.21 1010.10 1009.99 1009.89 1009.77 1009.66 1009.56 1009.49 1009.45 1009.45 1009.48 1009.53 1009.58 1009.62 1009.63 1009.62 1009.60 1009.57 1009.55 1009.56 1009.60
Thickness
5825 5821 5817 5806 5789 5778 5780 5799 5816 5821 5827 5837 5841 5835 5828 5821 5813 5813 5835 5845 5842 5835 5828 5823 5817 5812 5807 5803 5798 5795 5791 5789 5786 5784 5782 5779 5777 5776 5774 5772 5770 5769 5767 5766 5764 5763 5761 5760 5758
5824 5820 5811 5797 5782 5773 5788 5812 5817 5825 5835 5843 5842 5837 5830 5827 5831 5831 5835 5840 5839 5833 5827 5822 5816 5811 5806 5801 5797 5793 5790 5787 5784 5781 5779 5777 5775 5773 5771 5770 5769 5767 5766 5764 5762 5761 5759 5758 5756
5823 5819 5801 5789 5781 5780 5797 5819 5824 5835 5844 5843 5837 5837 5831 5828 5833 5834 5838 5839 5835 5830 5825 5820 5815 5810 5805 5800 5796 5792 5788 5785 5782 5780 5777 5775 5773 5771 5769 5768 5766 5765 5764 5762 5761 5759 5757 5756 5755
5819 5807 5796 5783 5784 5800 5813 5826 5832 5835 5841 5845 5838 5830 5835 5842 5841 5841 5841 5838 5832 5827 5822 5818 5814 5808 5804 5799 5794 5790 5786 5783 5780 5778 5775 5773 5771 5769 5767 5765 5764 5762 5761 5760 5759 5757 5756 5754 5753
5813 5797 5784 5775 5786 5808 5824 5833 5837 5833 5835 5839 5837 5827 5829 5841 5845 5843 5840 5836 5830 5824 5820 5816 5812 5806 5801 5797 5793 5789 5785 5782 5778 5776 5773 5771 5769 5767 5765 5763 5761 5760 5758 5757 5756 5755 5754 5752 5751
5799 5789 5773 5771 5789 5811 5825 5834 5835 5832 5834 5838 5836 5827 5828 5839 5840 5839 5839 5834 5829 5823 5818 5814 5809 5804 5800 5795 5791 5787 5784 5780 5777 5774 5771 5769 5766 5764 5762 5760 5759 5757 5756 5755 5754 5753 5751 5750 5749
5793 5782 5777 5782 5788 5803 5823 5835 5831 5829 5830 5835 5839 5825 5827 5833 5837 5838 5836 5831 5826 5821 5816 5812 5807 5802 5798 5793 5789 5785 5781 5778 5774 5771 5768 5766 5764 5761 5760 5758 5757 5755 5754 5753 5751 5750 5749 5748 5747
5802 5784 5782 5780 5787 5798 5823 5831 5834 5832 5832 5845 5843 5826 5825 5834 5836 5832 5828 5824 5821 5817 5813 5809 5805 5800 5796 5791 5787 5783 5779 5776 5772 5769 5766 5764 5761 5759 5757 5756 5755 5753 5752 5751 5750 5749 5747 5746 5745
5804 5776 5769 5782 5790 5801 5820 5822 5830 5840 5837 5840 5844 5841 5842 5841 5833 5825 5819 5816 5813 5812 5809 5805 5801 5797 5792 5787 5784 5780 5777 5774 5770 5766 5764 5761 5759 5757 5755 5754 5752 5752 5751 5750 5749 5748 5746 5745 5744
5790 5768 5779 5797 5805 5808 5814 5818 5824 5828 5826 5831 5836 5839 5841 5836 5828 5820 5815 5811 5809 5806 5804 5802 5797 5792 5787 5783 5780 5777 5773 5769 5766 5763 5760 5758 5756 5754 5753 5751 5750 5749 5749 5748 5748 5747 5745 5744 5743
5790 5781 5793 5804 5811 5812 5811 5817 5824 5819 5815 5826 5830 5831 5832 5829 5822 5817 5813 5810 5807 5803 5800 5797 5792 5787 5782 5778 5774 5771 5768 5764 5761 5759 5756 5754 5752 5750 5749 5748 5747 5747 5747 5747 5747 5747 5745 5744 5742
5790 5794 5800 5806 5814 5811 5812 5816 5816 5817 5825 5837 5838 5834 5828 5821 5817 5813 5808 5803 5799 5796 5793 5790 5787 5782 5777 5773 5769 5766 5763 5760 5758 5755 5752 5750 5748 5747 5746 5745 5745 5744 5744 5745 5745 5745 5744 5742 5741
5787 5792 5801 5808 5808 5809 5811 5809 5811 5816 5829 5833 5832 5826 5820 5815 5812 5809 5805 5799 5793 5788 5785 5783 5780 5774 5770 5766 5762 5759 5756 5755 5753 5751 5748 5746 5744 5743 5743 5743 5742 5742 5742 5742 5742 5742 5741 5740 5740
5787 5790 5793 5799 5804 5808 5804 5801 5800 5807 5820 5820 5817 5811 5809 5806 5804 5800 5796 5792 5788 5783 5779 5776 5773 5768 5763 5759 5755 5751 5749 5747 5746 5744 5743 5742 5740 5739 5739 5739 5739 5739 5739 5738 5738 5738 5738 5737 5737
5785 5780 5784 5794 5798 5803 5799 5782 5782 5797 5808 5806 5803 5800 5797 5794 5794 5790 5788 5785 5782 5778 5774 5770 5767 5763 5758 5753 5748 5744 5741 5738 5738 5739 5738 5736 5735 5735 5734 5734 5735 5735 5735 5734 5734 5734 5733 5733 5733
5775 5766 5762 5779 5786 5792 5783 5755 5768 5785 5792 5788 5787 5787 5784 5782 5781 5782 5782 5780 5776 5771 5766 5762 5760 5756 5752 5748 5744 5737 5733 5733 5732 5733 5733 5731 5730 5730 5730 5730 5730 5731 5730 5729 5729 5728 5728 5728 5728
5751 5745 5751 5762 5774 5776 5763 5746 5756 5770 5776 5773 5773 5773 5772 5770 5770 5771 5772 5771 5767 5763 5759 5755 5752 5749 5745 5741 5736 5732 5727 5726 5725 5725 5725 5724 5723 5724 5725 5726 5726 5726 5725 5725 5724 5723 5723 5723 5723
5742 5744 5746 5748 5757 5759 5747 5739 5748 5758 5762 5761 5762 5762 5761 5760 5758 5759 5759 5759 5757 5754 5751 5746 5743 5742 5740 5735 5730 5727 5721 5719 5719 5719 5719 5718 5717 5719 5720 5720 5720 5721 5720 5719 5719 5718 5719 5718 5719
5752 5746 5741 5748 5757 5745 5735 5733 5738 5746 5750 5751 5750 5750 5749 5749 5749 5749 5748 5747 5746 5743 5740 5737 5731 5731 5730 5725 5721 5716 5713 5713 5714 5714 5714 5715 5716 5716 5716 5716 5715 5715 5716 5715 5714 5713 5713 5713 5714
5749 5742 5740 5746 5751 5741 5729 5727 5732 5737 5738 5739 5739 5739 5739 5739 5740 5740 5738 5737 5734 5731 5728 5727 5723 5723 5722 5720 5716 5710 5708 5708 5708 5708 5709 5710 5712 5712 5712 5712 5711 5711 5710 5709 5709 5708 5707 5707 5708
5750 5745 5745 5742 5742 5738 5730 5719 5722 5727 5731 5732 5731 5731 5730 5729 5727 5726 5726 5725 5723 5722 5718 5717 5715 5712 5712 5712 5710 5707 5704 5704 5703 5703 5704 5705 5707 5707 5707 5705 5705 5705 5705 5704 5703 5703 5702 5701 5701
5746 5759 5756 5747 5731 5717 5723 5702 5712 5716 5716 5718 5718 5718 5717 5716 5716 5714 5713 5712 5712 5712 5710 5707 5705 5704 5705 5705 5703 5700 5697 5695 5695 5696 5698 5699 5701 5700 5700 5700 5700 5699 5699 5698 5698 5698 5697 5696 5695
5756 5758 5750 5741 5728 5712 5709 5700 5702 5710 5706 5706 5708 5708 5707 5705 5704 5703 5703 5703 5703 5703 5701 5698 5697 5696 5695 5695 5694 5692 5689 5689 5689 5689 5690 5691 5692 5693 5693 5692 5693 5692 5692 5692 5691 5691 5691 5691 5690
5760 5748 5735 5721 5711 5697 5701 5698 5695 5701 5703 5702 5702 5702 5700 5698 5696 5695 5695 5695 5694 5694 5692 5690 5689 5687 5686 5685 5683 5681 5679 5679 5680 5679 5679 5680 5681 5682 5683 5683 5683 5684 5684 5685 5684 5684 5684 5684 5684
5749 5726 5702 5698 5686 5689 5700 5695 5695 5706 5707 5703 5700 5697 5695 5692 5689 5687 5687 5686 5685 5684 5682 5681 5679 5676 5675 5673 5671 5670 5669 5668 5668 5667 5667 5668 5668 5669 5670 5671 5672 5673 5675 5676 5676 5676 5676 5677 5678
5740 5726 5698 5686 5681 5686 5694 5690 5698 5707 5706 5703 5699 5694 5691 5687 5683 5680 5679 5678 5676 5675 5674 5671 5668 5665 5663 5660 5658 5657 5656 5654 5653 5653 5653 5653 5653 5655 5657 5658 5660 5661 5663 5665 5666 5667 5667 5669 5670
5736 5718 5716 5693 5687 5679 5684 5692 5700 5702 5698 5695 5691 5688 5683 5680 5677 5674 5673 5670 5667 5665 5663 5660 5656 5653 5650 5648 5645 5642 5641 5639 5638 5637 5637 5637 5638 5639 5640 5642 5645 5646 5649 5651 5654 5656 5658 5660 5662
5737 5719 5700 5687 5676 5672 5682 5682 5681 5690 5688 5687 5684 5680 5677 5674 5670 5668 5665 5661 5658 5654 5651 5647 5643 5640 5638 5635 5631 5629 5626 5624 5622 5620 5619 5619 5620 5621 5622 5624 5626 5629 5633 5636 5638 5641 5645 5647 5651
5725 5716 5695 5680 5679 5669 5665 5672 5688 5684 5683 5679 5677 5674 5669 5666 5663 5660 5657 5653 5648 5643 5638 5633 5629 5625 5623 5620 5618 5614 5612 5608 5605 5602 5602 5601 5601 5602 5603 5605 5607 5610 5614 5618 5621 5625 5629 5632 5637
5725 5713 5699 5685 5676 5668 5661 5665 5685 5681 5678 5675 5670 5667 5663 5659 5655 5651 5646 5641 5635 5629 5624 5619 5615 5610 5607 5605 5602 5599 5596 5592 5588 5586 5586 5584 5583 5583 5584 5586 5588 5591 5595 5599 5603 5606 5612 5616 5621